Wind_Speed
44 47 53 51 49 49 52 52 52 50 50 51 53 52 49 52 46 45 41 39 37 37 38 35 36 36 37 36 33 32 32 32 34 37 37 38 39 39 37 37 36 37 36 40
51 55 57 60 60 58 60 61 62 61 59 59 61 61 56 55 54 50 49 46 42 39 36 35 38 38 37 37 37 34 32 34 35 36 39 40 38 38 39 40 40 40 41 40
59 65 67 61 66 72 72 68 67 66 65 69 68 64 60 62 58 57 54 53 52 48 45 40 36 39 40 39 38 37 35 35 37 39 39 41 43 41 41 41 42 42 42 43
66 70 69 67 74 78 72 71 72 71 70 67 68 70 63 72 67 65 62 58 56 52 49 48 42 39 39 38 39 39 38 35 36 40 43 43 42 41 41 41 40 42 43 44
68 69 68 70 80 71 70 75 69 73 76 71 56 74 75 74 70 68 66 63 61 58 55 52 49 45 43 39 35 35 37 37 34 36 39 39 40 40 39 37 36 37 39 40
74 74 75 81 75 73 74 82 78 76 76 75 75 76 67 70 72 74 70 66 64 63 62 59 54 52 49 46 42 38 34 37 36 34 32 33 33 34 30 26 23 23 25 29
68 66 71 72 73 74 81 85 82 81 83 80 83 82 76 71 73 74 70 70 69 65 65 64 62 57 54 51 49 46 40 37 37 37 35 31 28 23 29 29 26 23 18 21
54 52 55 58 57 59 66 67 68 73 77 80 83 86 86 84 76 75 76 69 67 69 68 65 63 61 58 55 55 52 49 43 40 42 40 33 34 37 34 33 34 34 31 24
45 41 42 46 50 53 55 52 51 56 61 65 68 74 82 87 87 85 81 77 75 70 68 70 69 64 61 61 58 58 55 49 45 44 45 47 46 40 40 46 40 38 31 26
39 32 32 33 37 41 47 47 47 47 46 48 53 59 65 72 79 87 88 85 82 78 73 70 73 71 67 65 64 62 60 56 53 51 50 53 53 55 47 50 50 48 43 39
32 28 25 25 26 29 34 40 42 38 38 41 46 53 58 62 68 75 84 87 88 85 82 77 73 70 74 73 70 67 62 62 60 57 58 59 60 60 54 55 52 41 48 29
23 18 15 14 14 17 20 24 32 35 36 38 38 40 44 49 59 67 77 81 88 87 87 90 82 80 74 73 77 73 69 65 65 67 64 68 67 64 59 60 58 59 53 37
11 16 18 21 18 14 11 12 16 23 31 36 39 41 43 46 52 56 63 72 77 89 94 96 85 89 79 83 78 77 78 74 74 69 67 73 71 67 62 62 65 68 57 55
9 6 8 9 7 6 10 8 7 12 19 27 34 37 41 43 45 51 57 63 69 78 91 98 96 95 91 91 84 81 80 78 74 66 67 74 76 72 68 70 71 70 63 57
12 13 18 20 15 11 11 10 9 10 11 12 17 21 26 35 40 41 45 52 62 68 74 85 93 100 100 97 92 87 89 83 79 73 71 67 76 78 77 77 75 75 70 66
13 13 14 20 22 19 13 10 11 9 12 15 16 15 15 17 22 29 35 39 44 53 64 69 76 86 95 101 99 97 98 92 90 84 80 77 75 78 83 83 83 81 78 74
12 7 12 12 18 15 12 9 12 18 17 13 14 27 29 19 18 19 23 29 35 41 48 56 66 73 79 87 92 97 99 98 96 93 89 86 87 85 84 86 88 85 85 84
2 10 10 11 9 12 13 14 15 17 18 17 11 20 20 20 17 17 19 20 22 27 36 43 48 53 59 65 72 80 87 93 99 99 98 96 93 91 92 90 91 91 95 90
3 8 8 15 10 8 13 16 18 21 25 26 20 16 16 12 15 13 11 14 18 18 21 27 36 43 48 51 55 61 67 73 79 87 95 101 102 102 101 100 99 98 97 94
3 9 10 7 2 3 7 9 9 14 18 22 22 16 13 12 12 10 9 10 10 9 11 16 22 25 30 37 45 53 57 61 64 68 74 80 85 92 98 104 104 105 105 101
5 12 15 16 3 5 13 9 10 12 13 17 17 22 23 22 23 25 20 20 16 16 16 15 18 21 23 27 34 37 42 48 54 58 61 64 67 71 78 86 96 104 109 107
13 12 15 19 15 11 6 11 13 14 14 7 5 11 12 14 16 22 27 22 20 25 22 21 20 21 23 26 28 30 33 35 37 41 48 52 55 60 62 69 77 84 94 103
21 15 19 15 19 18 16 12 12 12 11 8 6 3 5 10 12 14 19 20 19 24 30 30 24 18 17 18 23 26 28 30 31 32 34 38 42 47 53 53 56 67 74 83
32 24 20 18 17 18 19 20 16 13 11 10 12 10 9 15 15 15 19 13 19 19 28 30 22 15 13 12 16 22 24 26 27 25 24 24 30 35 39 43 41 46 49 59
35 31 29 23 19 16 17 17 17 15 16 15 14 13 15 16 13 17 17 10 17 21 25 26 22 17 13 12 18 18 18 22 23 20 20 19 24 24 27 26 26 30 34 45
29 32 33 32 27 23 20 20 18 19 15 16 20 17 16 15 16 16 8 9 14 16 19 22 26 23 16 11 8 8 10 11 12 14 16 18 19 20 23 19 16 20 28 37
30 30 27 28 29 31 31 27 21 22 22 21 25 27 26 21 19 16 15 11 14 17 16 18 19 20 22 19 12 8 5 7 8 8 10 18 20 22 26 28 28 26 28 29
Wind_Direction
277 271 272 272 271 267 267 265 262 258 259 260 263 263 259 264 258 253 252 253 252 248 249 246 242 245 249 252 255 247 243 245 241 237 237 236 232 235 237 239 238 235 240 245
281 277 274 271 272 267 263 261 260 259 257 254 255 257 259 259 260 260 256 254 251 251 251 248 244 241 241 244 247 250 248 245 244 242 238 236 235 234 236 240 243 244 248 248
279 276 273 273 270 267 264 263 260 255 255 254 256 257 256 257 256 257 256 254 253 249 248 247 247 245 240 241 242 243 244 243 241 239 242 241 239 236 235 237 239 243 247 253
281 278 276 272 268 264 265 263 262 263 260 253 255 258 257 255 251 251 250 252 254 253 250 249 244 246 247 244 243 243 244 241 241 241 238 238 240 241 242 241 241 244 248 250
282 277 274 272 266 268 268 265 260 258 258 256 237 252 248 252 254 252 250 251 251 252 252 250 249 243 244 246 243 241 243 237 235 236 238 238 237 239 241 245 248 251 253 254
286 280 276 269 265 264 263 262 257 256 255 254 254 253 250 248 253 252 251 248 247 250 250 249 247 246 242 241 242 240 242 240 233 230 232 235 232 232 232 237 244 253 258 262
284 277 271 269 265 261 258 257 256 254 254 250 251 251 251 247 246 248 249 247 245 244 247 248 246 243 242 242 241 239 238 238 234 230 228 225 220 217 221 220 222 229 246 260
290 283 273 267 264 261 261 259 258 253 252 252 249 248 248 247 242 245 245 245 247 243 240 243 247 247 242 240 241 239 236 235 235 231 230 223 221 226 233 235 229 228 233 243
299 291 280 270 265 257 254 256 256 255 251 248 248 246 245 245 244 242 243 242 243 244 242 239 241 242 242 240 239 237 235 231 233 234 228 226 228 228 230 234 244 241 240 253
310 296 285 275 268 259 252 251 249 249 250 248 247 246 245 244 243 242 242 239 239 240 243 240 238 239 241 241 239 240 239 233 235 233 230 232 230 231 243 240 241 238 240 247
318 316 305 289 277 267 257 252 253 256 250 247 244 241 240 241 241 242 242 240 240 238 238 239 240 238 237 241 241 241 241 238 235 236 234 230 233 231 240 235 232 232 229 237
340 342 348 331 310 291 276 264 254 250 250 251 250 250 249 248 246 243 240 242 237 238 239 238 239 240 238 239 241 242 240 236 238 238 234 231 233 233 236 232 235 225 245 232
3 33 31 25 21 15 335 293 269 261 256 255 255 254 251 249 250 247 245 245 239 232 235 238 235 238 240 240 241 242 240 242 241 237 232 227 232 235 234 233 233 231 247 237
25 351 348 342 327 1 341 335 299 277 268 264 261 255 255 257 257 251 246 244 241 238 234 236 235 236 234 238 238 241 241 239 240 234 228 223 230 232 232 234 233 236 239 240
331 352 353 353 354 341 341 340 330 316 306 297 289 279 268 262 258 257 254 248 243 240 239 239 235 235 237 237 237 235 239 240 238 233 227 226 232 233 231 232 232 237 242 245
342 347 27 22 12 2 357 2 351 359 16 5 350 335 311 286 276 268 256 251 249 244 241 241 243 241 238 238 238 237 238 240 241 237 233 230 230 235 237 235 235 236 240 242
330 29 31 13 5 334 338 346 351 344 343 335 0 344 323 323 298 283 279 270 256 247 245 242 241 241 241 241 241 241 241 242 241 241 239 235 233 236 237 239 238 236 238 242
318 5 349 327 341 0 15 13 3 349 343 334 345 328 311 315 305 300 284 284 276 265 251 247 248 246 245 245 244 244 243 243 243 242 241 240 236 234 236 239 240 239 239 238
110 328 317 342 332 16 33 33 31 28 21 7 346 326 329 330 325 322 311 288 287 283 272 259 252 249 248 246 244 244 244 243 243 242 242 242 241 238 234 234 236 239 240 240
109 276 257 287 329 43 18 355 1 12 10 11 14 13 16 18 23 15 353 347 339 310 287 274 263 256 251 249 246 245 246 247 247 246 244 243 242 241 239 238 235 235 238 237
194 267 254 265 267 344 312 316 332 8 15 5 49 60 61 47 48 38 30 19 8 356 336 314 287 268 262 259 254 249 247 247 248 248 246 245 244 243 243 241 238 236 236 236
213 263 253 257 262 253 296 328 331 355 340 351 52 64 56 48 47 27 359 349 11 11 354 331 309 291 276 267 266 268 267 263 257 250 247 245 243 242 239 240 239 237 235 235
220 223 246 256 268 262 275 296 308 324 334 321 313 299 293 342 9 25 3 339 357 358 349 347 325 299 282 268 265 267 265 264 263 261 257 251 244 242 239 238 239 239 237 237
233 227 237 245 267 271 271 285 281 299 324 308 295 309 305 321 316 328 349 5 352 351 350 345 337 321 302 283 270 265 265 267 265 260 256 252 250 248 242 235 237 235 237 235
233 237 235 245 243 260 275 279 283 276 286 289 292 292 283 294 322 328 327 346 348 346 358 3 2 347 332 290 272 276 272 266 264 255 244 242 235 233 237 226 222 226 227 232
246 248 247 245 249 250 254 269 282 270 255 276 279 279 287 288 294 305 293 331 334 333 359 8 9 5 355 330 284 288 282 270 265 257 237 227 199 201 214 223 234 237 234 234
248 249 252 258 258 253 252 253 253 264 264 245 257 278 278 270 279 282 272 285 294 316 339 349 4 13 26 23 9 352 318 267 242 219 206 202 193 194 201 206 209 220 228 227
Height
10866 10862 10855 10857 10859 10859 10857 10857 10856 10857 10857 10856 10855 10858 10860 10857 10865 10866 10869 10872 10874 10877 10880 10883 10885 10887 10890 10892 10894 10896 10900 10903 10907 10910 10913 10916 10919 10921 10924 10927 10929 10931 10933 10935
10850 10845 10843 10839 10840 10842 10839 10837 10837 10838 10841 10841 10839 10838 10845 10844 10847 10852 10855 10859 10862 10865 10868 10872 10874 10877 10879 10881 10884 10887 10890 10894 10897 10900 10903 10906 10909 10912 10916 10920 10923 10926 10928 10929
10834 10822 10820 10828 10820 10808 10808 10816 10818 10821 10822 10815 10822 10827 10833 10829 10834 10835 10839 10843 10846 10852 10856 10859 10863 10866 10868 10871 10874 10876 10880 10883 10885 10889 10892 10895 10898 10903 10907 10910 10914 10918 10921 10924
10807 10798 10798 10798 10786 10780 10793 10792 10790 10799 10802 10810 10813 10809 10815 10804 10813 10816 10822 10827 10831 10837 10842 10846 10850 10854 10858 10861 10864 10866 10868 10872 10875 10876 10880 10884 10889 10895 10899 10902 10905 10908 10911 10914
10776 10770 10770 10766 10747 10765 10767 10759 10773 10770 10770 10780 10821 10790 10785 10786 10794 10799 10806 10811 10815 10820 10825 10830 10836 10841 10845 10850 10853 10855 10857 10860 10864 10867 10871 10877 10882 10886 10890 10893 10897 10900 10903 10905
10743 10735 10731 10719 10733 10736 10737 10726 10737 10743 10749 10755 10757 10757 10768 10772 10774 10777 10785 10792 10798 10801 10806 10812 10819 10825 10831 10837 10841 10844 10847 10850 10854 10859 10864 10867 10869 10872 10877 10882 10887 10891 10893 10895
10705 10700 10689 10692 10695 10699 10694 10694 10705 10712 10715 10727 10727 10733 10740 10753 10753 10755 10764 10769 10776 10783 10787 10792 10800 10807 10815 10822 10826 10832 10836 10841 10846 10850 10851 10854 10859 10864 10864 10868 10872 10875 10880 10879
10676 10672 10665 10661 10663 10669 10665 10671 10678 10681 10686 10692 10700 10705 10713 10721 10730 10735 10742 10749 10753 10760 10770 10776 10782 10789 10797 10804 10810 10816 10822 10829 10836 10839 10843 10847 10849 10852 10858 10861 10859 10855 10858 10864
10656 10650 10643 10642 10641 10644 10644 10649 10654 10657 10660 10665 10671 10676 10684 10692 10703 10710 10718 10726 10733 10739 10748 10757 10762 10771 10777 10784 10790 10799 10806 10814 10821 10826 10830 10831 10835 10841 10848 10850 10856 10849 10848 10857
10640 10635 10629 10627 10625 10626 10628 10630 10632 10636 10641 10647 10652 10656 10661 10667 10676 10683 10693 10702 10710 10717 10726 10735 10742 10751 10758 10765 10771 10779 10788 10798 10805 10811 10815 10814 10820 10825 10825 10828 10837 10833 10838 10831
10632 10626 10621 10616 10614 10614 10614 10617 10621 10625 10628 10631 10634 10636 10640 10645 10653 10660 10665 10677 10688 10696 10704 10712 10720 10730 10738 10744 10751 10760 10768 10779 10788 10792 10797 10798 10799 10806 10811 10811 10819 10820 10817 10833
10629 10623 10618 10613 10610 10608 10608 10609 10610 10614 10617 10619 10623 10625 10627 10631 10634 10639 10644 10651 10662 10671 10681 10689 10702 10708 10717 10725 10732 10740 10749 10758 10767 10775 10780 10777 10779 10786 10791 10796 10802 10805 10803 10811
10629 10624 10620 10615 10611 10608 10606 10604 10604 10604 10606 10609 10611 10612 10613 10615 10616 10619 10623 10627 10634 10645 10654 10664 10679 10685 10697 10703 10712 10718 10726 10734 10745 10756 10761 10764 10766 10769 10776 10781 10785 10790 10793 10796
10630 10626 10622 10617 10612 10610 10607 10604 10601 10599 10598 10598 10598 10600 10600 10601 10600 10602 10603 10606 10610 10620 10628 10637 10651 10661 10671 10680 10691 10698 10705 10713 10724 10737 10743 10747 10749 10756 10761 10763 10769 10775 10780 10784
10631 10627 10622 10617 10613 10610 10607 10604 10601 10598 10596 10594 10592 10591 10591 10588 10587 10586 10587 10589 10593 10598 10605 10613 10623 10635 10643 10655 10668 10677 10683 10692 10703 10714 10724 10728 10730 10736 10743 10747 10752 10754 10760 10764
10631 10627 10623 10620 10617 10613 10609 10605 10601 10598 10595 10592 10588 10586 10584 10582 10578 10575 10575 10576 10578 10582 10587 10593 10602 10610 10618 10627 10641 10652 10660 10670 10678 10691 10702 10711 10713 10715 10719 10728 10735 10740 10744 10750
10631 10628 10625 10622 10618 10613 10609 10605 10601 10598 10594 10590 10586 10585 10580 10576 10573 10570 10567 10566 10567 10570 10571 10575 10581 10586 10594 10603 10615 10628 10638 10644 10655 10665 10675 10686 10695 10695 10700 10704 10713 10721 10728 10733
10629 10627 10624 10619 10616 10612 10608 10605 10601 10596 10591 10587 10583 10580 10575 10570 10567 10565 10562 10561 10560 10560 10562 10565 10568 10573 10579 10585 10594 10601 10610 10618 10626 10637 10645 10657 10668 10678 10680 10683 10691 10700 10707 10719
10626 10625 10621 10619 10616 10612 10609 10605 10601 10596 10591 10586 10580 10576 10572 10566 10564 10562 10559 10557 10556 10555 10555 10556 10558 10561 10565 10568 10573 10578 10584 10591 10598 10605 10612 10622 10633 10645 10657 10666 10671 10676 10681 10696
10622 10620 10619 10616 10614 10610 10608 10605 10600 10597 10593 10588 10581 10575 10571 10569 10566 10563 10560 10557 10555 10553 10551 10551 10551 10551 10553 10556 10559 10562 10565 10569 10574 10581 10588 10595 10602 10612 10625 10636 10647 10654 10657 10671
10617 10615 10613 10612 10611 10608 10605 10603 10600 10596 10592 10589 10585 10580 10577 10574 10570 10566 10563 10560 10557 10553 10550 10548 10546 10546 10546 10545 10545 10548 10551 10553 10557 10561 10567 10572 10578 10585 10594 10603 10613 10625 10634 10645
10611 10609 10608 10606 10606 10604 10602 10600 10597 10594 10591 10588 10585 10582 10578 10575 10571 10568 10566 10562 10558 10554 10549 10546 10542 10539 10538 10537 10538 10538 10539 10540 10542 10546 10548 10552 10558 10563 10569 10574 10581 10591 10602 10615
10603 10602 10601 10601 10600 10600 10598 10597 10594 10592 10589 10587 10584 10581 10578 10575 10571 10568 10566 10561 10557 10553 10548 10542 10535 10532 10530 10530 10530 10529 10528 10528 10529 10531 10534 10537 10542 10546 10552 10555 10561 10569 10578 10588
10595 10595 10595 10595 10595 10594 10593 10592 10590 10588 10586 10584 10582 10580 10577 10573 10570 10567 10564 10560 10556 10551 10547 10540 10532 10527 10524 10523 10521 10520 10520 10520 10520 10520 10520 10525 10531 10535 10540 10545 10549 10553 10561 10567
10587 10587 10588 10588 10588 10588 10587 10586 10585 10583 10582 10579 10578 10576 10573 10570 10568 10564 10562 10559 10555 10551 10546 10540 10533 10527 10522 10519 10517 10515 10514 10513 10512 10512 10513 10514 10519 10526 10531 10534 10539 10543 10549 10555
10579 10580 10580 10580 10580 10581 10581 10580 10579 10577 10576 10575 10572 10571 10568 10566 10564 10561 10558 10556 10553 10549 10545 10541 10535 10528 10522 10517 10514 10512 10509 10507 10505 10505 10506 10507 10507 10513 10522 10529 10534 10537 10542 10546
10570 10571 10571 10571 10572 10572 10572 10571 10570 10570 10569 10568 10566 10563 10561 10560 10558 10557 10555 10552 10550 10547 10544 10540 10536 10530 10526 10521 10517 10513 10510 10507 10505 10504 10504 10506 10509 10512 10515 10517 10520 10525 10529 10534